Regional Weather Roundup
Issued by NWS State College, PA

Home | Current Version | Previous Version | Text Only | Print | Product List | Glossary On
Versions: 1 2 3 4 5 6 7 8 9 10 11 12 13 14 15 16 17 18 19 20 21 22 23 24 25 26 27 28 29 30 31 32 33 34 35 36 37 38 39 40 41 42 43 44 45 46 47 48 49 50
000
ASUS41 KCTP 230710
RWRCTP

REGIONAL WEATHER ROUNDUP
NATIONAL WEATHER SERVICE STATE COLLEGE PA
300 AM EDT THU MAR 23 2017

Note: "fair" indicates few or no clouds below 12,000 feet with no
significant weather and/or obstructions to visibility.

* = STATION THAT DOES NOT REPORT PRECIPITATION /E.G. RAIN...SNOW...ETC/
    THUNDER OR FOG.

PAZ002>004-007>009-013>016-020>023-029>032-230800-
WESTERN PENNSYLVANIA

CITY           SKY/WX    TMP DP  RH WIND       PRES   REMARKS
ERIE           CLEAR     20  13  74 CALM      30.54R
MEADVILLE      CLEAR     18  10  71 SW3       30.49R
FRANKLIN*      CLEAR     16   5  62 CALM      30.49S
NEW CASTLE     FAIR      16  10  77 CALM      30.53S
BEAVER COUNTY  NOT AVBL
BUTLER*        CLEAR     18  12  79 CALM      30.51S
PITTSBURGH INT CLEAR     22  10  60 CALM      30.50S
PITTSBURGH     CLEAR     22   6  50 E3        30.49S
INDIANA*       CLEAR     19   9  63 CALM      30.51S
LATROBE        CLEAR     21   7  53 CALM      30.51S
WASHINGTON CO* CLEAR     19   9  63 CALM      30.52R
$$

PAZ004>006-010>012-017>019-024>028-033>037-041-042-045-046-049>053-230800-
CENTRAL PENNSYLVANIA

CITY           SKY/WX    TMP DP  RH WIND       PRES   REMARKS
BRADFORD       CLEAR     10   6  84 CALM      30.41S
DUBOIS         CLEAR     14   5  67 SW3       30.44R
CLEARFIELD       N/A    N/A N/A N/A MISG      30.46S
JOHNSTOWN      CLEAR     17   5  59 N3        30.40S
ALTOONA        CLEAR     22   3  44 CALM      30.46R
STATE COLLEGE  CLEAR     21   5  49 CALM      30.48R
WILLIAMSPORT   PTCLDY    22   4  46 W5        30.51R
SELINSGROVE    CLEAR     20  11  68 CALM      30.52S
FT INDIANTOWN  CLEAR     25   0  34 N7        30.51R
CAPITAL CITY   CLEAR     29   1  30 N7        30.52R
HARRISBURG     CLEAR     26   3  37 NW5       30.52R
YORK           CLEAR     20  10  65 CALM      30.50R
$$

PAZ038>040-043-044-047-048-054-055-060>062-067>071-230800-
EASTERN PENNSYLVANIA

CITY           SKY/WX    TMP DP  RH WIND       PRES   REMARKS
SCRANTON       CLEAR     19   4  51 CALM      30.46S
MOUNT POCONO   CLEAR     13   3  64 NW9       30.35R WCI   1
ALLENTOWN      PTCLDY    21   4  47 NW6       30.50S WCI  13
QUAKERTOWN*    SUNNY     21   5  49 NW6       30.50S WCI  14
READING        CLEAR     23   6  48 CALM      30.51R
LANCASTER      CLEAR     25   3  38 CALM      30.51R
COATESVILLE    SUNNY     23   3  42 N5        30.50R
POTTSTOWN      PTCLDY    21   3  45 NW5       30.53R WCI  15
BLUE BELL      PTCLDY    23   5  46 NW5       30.50F
DOYLESTOWN     CLEAR     18   5  57 NW6       30.49R WCI  10
WILLOW GROVE   NOT AVBL
NORTH PHILA    PTCLDY    24   5  44 N10       30.52F WCI  14
PHILADELPHIA   PTCLDY    25   3  38 N13       30.53S WCI  14
$$



USA.gov is the U.S. government's official web portal to all federal, state and local government web resources and services.